Lapse_Rate
0.6 0.4 0.3 0.1 -0.3 -0.8 -1.2 -1.7 -2.2 -2.8 -3.3 -4.0 -4.5 -5.0 -5.5 -5.8 -5.2 -2.5 4.8 5.0 2.3 1.0 3.3 4.8 6.3 6.3 7.3 7.0 7.0 5.9 6.5 6.5 6.5 6.5 6.5 7.2 6.6 7.6 8.1 7.5 7.8 8.0 8.0 8.5 8.8
0.0 0.0 -0.2 -0.2 -0.2 -0.4 -0.7 -1.3 -1.9 -2.5 -3.0 -3.6 -4.3 -4.7 -5.2 -5.7 -1.8 3.4 3.6 0.4 0.1 0.6 4.2 4.2 5.5 6.9 7.1 7.1 6.9 6.7 6.5 6.5 6.5 6.6 6.5 6.8 6.9 7.2 7.1 7.1 7.2 7.8 8.3 8.3 8.2
0.2 0.1 0.0 -0.2 -0.3 -0.6 -0.8 -1.1 -1.7 -2.3 -2.9 -3.3 -3.8 -4.2 -4.7 -4.7 4.0 6.6 1.0 0.6 1.1 2.0 5.3 6.4 6.5 6.8 7.2 7.6 7.1 6.8 6.5 6.5 6.7 7.2 7.3 7.0 6.9 7.4 7.0 6.5 7.3 7.4 7.8 8.2 8.4
0.3 0.1 -0.1 -0.3 -0.6 -0.7 -1.0 -1.3 -1.8 -2.3 -2.8 -3.0 -3.4 -3.8 -4.4 -0.1 6.5 5.4 0.8 0.6 1.4 4.4 5.9 6.5 6.9 7.3 6.7 6.5 7.4 6.5 6.9 6.9 7.1 7.4 7.2 6.6 7.2 6.8 7.2 7.1 8.0 8.1 8.2 8.3 8.3
0.5 0.2 -0.1 -0.4 -0.7 -1.0 -1.2 -1.6 -2.1 -2.5 -2.8 -2.8 -2.7 -2.9 1.5 5.8 6.2 2.5 1.2 1.6 3.6 5.3 6.5 6.4 6.3 7.3 6.5 6.7 7.0 6.5 6.6 7.1 7.4 7.4 7.3 7.4 6.9 6.8 7.1 7.5 8.2 7.8 8.2 8.1 8.4
0.4 0.1 -0.2 -0.6 -0.9 -1.2 -1.5 -2.2 -2.6 -2.8 -2.8 -2.7 -2.3 -2.3 4.2 6.7 4.6 2.5 3.0 3.3 4.9 6.1 6.9 6.7 6.3 7.7 7.2 6.8 6.6 7.0 7.0 7.0 7.3 7.2 7.3 6.7 6.8 7.1 7.2 8.0 7.7 7.6 8.0 8.2 8.3
-0.2 -0.4 -0.6 -0.9 -1.2 -1.4 -1.9 -2.6 -2.9 -3.1 -3.0 -2.7 -2.1 0.7 5.1 6.5 3.4 2.4 2.7 3.6 4.1 5.8 7.0 6.8 7.3 7.4 7.6 6.6 7.6 7.3 6.5 6.5 6.8 7.0 6.7 7.2 6.5 6.5 7.4 7.7 7.5 7.7 7.9 8.1 8.3
-0.8 -1.0 -1.1 -1.3 -1.6 -1.7 -2.1 -3.0 -3.0 -2.7 -2.8 -2.5 -1.5 2.2 6.0 3.8 3.1 4.8 4.6 5.4 5.1 5.6 6.2 7.0 7.2 7.7 7.5 7.8 7.0 6.5 6.5 6.5 6.5 6.7 7.0 6.8 6.5 6.6 7.7 7.7 7.5 7.8 7.9 8.0 8.2
-1.3 -1.5 -1.6 -1.9 -2.1 -2.2 -2.6 -2.9 -1.3 -1.1 -1.6 -1.0 2.6 4.7 6.9 4.9 5.5 5.6 6.1 7.4 6.2 6.0 5.7 7.5 8.1 7.5 6.9 6.5 6.5 6.5 6.5 6.5 6.5 6.8 6.5 6.5 6.5 6.7 7.7 7.5 7.4 7.7 7.8 8.0 8.1
-1.6 -1.9 -2.2 -2.5 -2.6 -2.5 -2.9 -2.0 -0.4 1.0 1.8 2.5 4.5 5.9 6.0 7.1 7.0 7.3 5.5 6.7 7.1 6.4 7.3 7.6 7.5 6.5 6.5 6.5 6.5 6.5 6.5 6.5 6.5 6.5 6.5 6.5 6.5 6.5 7.5 7.5 7.4 7.6 7.8 7.9 8.1
-1.8 -2.0 -2.2 -2.6 -2.9 -2.7 -1.1 2.9 6.0 6.3 5.0 6.7 7.3 6.1 5.8 6.9 6.1 6.5 6.4 6.5 8.1 7.6 6.5 7.1 6.5 6.5 6.5 6.5 6.5 6.5 6.5 6.5 6.5 6.5 6.5 6.5 6.5 6.5 7.1 7.2 7.3 7.5 7.7 7.9 8.0
-2.0 -2.0 -2.3 -2.7 -3.1 -2.5 -0.4 6.4 6.1 5.7 6.9 5.4 5.0 5.7 5.6 7.0 7.3 6.8 6.8 7.4 7.1 6.5 6.6 6.5 6.5 6.5 6.5 6.5 6.5 6.5 6.5 6.5 6.5 6.5 6.5 6.5 6.5 6.5 6.8 7.0 7.3 7.4 7.6 7.9 8.1
-2.2 -2.3 -2.5 -2.6 -3.1 1.0 3.1 5.6 2.9 3.3 6.9 6.9 6.1 6.3 6.6 7.0 7.3 6.7 7.4 7.1 6.6 6.5 6.5 6.5 6.5 6.5 6.5 6.5 6.5 6.5 6.5 6.5 6.5 6.5 6.5 6.5 6.5 6.5 6.6 7.2 7.4 7.8 7.9 8.1 8.1
-2.4 -2.5 -2.7 -3.3 2.0 -0.0 5.3 2.8 1.5 2.5 6.5 6.5 6.8 7.3 6.4 6.9 6.8 6.4 7.1 7.4 6.6 6.5 6.5 6.5 6.6 6.5 6.5 6.5 6.5 6.5 6.5 6.5 6.5 6.5 6.5 6.5 6.5 6.5 6.5 6.5 6.7 7.4 7.7 8.0 8.1
-2.4 -2.7 -3.3 -3.4 0.8 4.4 3.8 1.4 2.6 4.7 6.5 6.5 6.7 6.9 6.6 7.1 7.1 7.0 6.4 6.9 6.5 6.5 6.5 6.5 6.5 6.5 6.5 6.5 6.5 6.5 6.5 6.5 6.5 6.5 6.5 6.5 6.5 6.5 6.5 6.5 6.5 7.1 7.5 7.9 8.2
-2.8 -3.4 -3.4 -2.4 -1.5 2.5 1.1 1.7 5.4 6.5 6.5 6.5 6.8 6.6 6.6 6.9 6.9 7.4 7.3 7.2 7.2 6.5 6.5 6.5 7.0 6.5 6.5 6.5 6.5 6.5 6.5 6.5 6.5 6.5 6.5 6.5 6.5 6.5 6.5 6.5 6.5 7.0 7.5 7.8 8.1
-3.5 -3.9 -2.8 -1.5 5.6 0.4 1.2 6.1 6.5 6.5 6.5 6.5 6.5 6.5 6.5 6.5 6.5 6.5 6.5 6.5 6.5 6.5 6.5 6.5 6.5 6.5 6.7 6.5 6.5 6.5 6.5 6.5 6.5 6.5 6.5 6.5 6.5 6.5 6.5 6.5 6.4 6.7 7.4 7.8 8.1
-4.0 -3.4 -2.2 -0.6 -0.2 -0.0 4.9 6.6 6.5 6.5 6.5 6.5 6.5 6.5 6.5 6.5 6.5 6.5 6.5 6.5 6.5 6.5 6.5 6.5 6.5 6.5 6.5 6.5 6.5 6.5 6.5 6.5 6.5 6.5 6.5 6.5 6.5 6.5 6.5 6.9 7.2 7.4 7.6 7.9 8.0
-3.7 -0.2 1.6 2.5 0.0 1.5 7.1 6.5 6.5 6.5 6.5 6.5 6.5 6.5 6.5 6.5 6.5 6.5 6.5 6.5 6.5 6.5 6.5 6.5 6.5 6.5 6.5 6.5 6.5 6.5 6.5 6.5 6.5 6.5 6.5 6.5 6.5 6.5 6.5 6.5 6.8 7.1 7.4 7.6 7.8
1.0 3.4 4.5 1.4 1.2 5.0 6.7 6.5 6.5 6.7 6.7 6.5 6.5 6.5 6.5 6.5 6.5 6.5 6.5 6.5 6.5 6.5 6.7 6.5 6.5 6.5 6.5 6.6 6.6 6.5 6.5 6.5 6.5 6.5 6.5 6.5 6.5 6.5 6.5 6.5 6.5 6.6 7.1 7.4 7.8
3.0 6.7 5.1 1.8 3.2 6.7 6.5 6.5 6.5 7.2 7.2 6.5 6.5 6.5 6.5 6.5 6.5 6.5 6.5 6.5 6.5 6.5 6.7 6.5 6.5 6.5 6.5 6.5 6.5 6.5 6.5 6.5 6.5 6.5 6.5 6.5 6.5 6.5 6.5 6.5 6.5 6.6 7.2 7.5 7.7
3.8 6.6 4.8 3.5 6.8 7.0 6.5 6.5 5.6 6.7 7.3 6.7 6.6 6.5 6.5 6.5 6.5 6.5 6.5 6.5 7.1 6.8 6.5 6.5 6.5 6.5 6.5 6.5 6.5 6.5 6.5 6.5 6.5 6.5 6.5 6.5 6.5 6.5 6.5 6.5 6.8 6.9 7.2 7.6 7.9
5.0 5.0 4.7 5.8 6.5 6.5 6.7 6.5 6.9 6.6 6.5 6.5 6.5 6.5 6.5 6.5 6.5 6.5 6.5 6.9 7.2 6.6 6.5 6.5 6.5 6.5 6.5 6.5 6.5 6.5 6.5 6.5 6.5 6.5 6.5 6.5 6.5 6.5 6.6 6.6 7.1 7.0 7.3 7.5 7.7
5.2 6.5 6.9 5.4 5.8 6.6 6.5 6.5 6.5 7.2 6.8 6.9 6.6 6.7 6.5 6.5 6.5 6.5 6.5 6.5 7.2 7.0 7.0 6.9 6.5 6.5 6.5 6.5 6.5 6.5 6.5 6.5 6.5 6.5 6.5 6.5 6.5 6.5 6.5 6.5 6.8 7.1 7.5 7.6 7.7
4.3 6.7 6.3 6.5 6.7 6.7 6.6 6.5 6.5 6.5 6.9 7.2 6.5 6.5 6.5 6.5 6.5 6.5 6.5 6.5 6.7 7.0 6.9 6.5 6.5 6.5 6.5 6.5 6.5 6.5 6.5 6.5 6.5 6.5 6.5 6.5 6.5 6.5 6.5 6.5 6.9 7.3 7.5 7.6 7.6
7.1 7.1 6.1 7.1 7.0 6.6 6.5 6.5 6.5 6.5 6.5 6.5 6.5 6.5 6.5 6.5 6.5 6.5 6.5 6.5 6.5 6.6 6.5 6.5 6.5 6.5 6.5 6.5 6.5 6.5 6.5 6.5 6.5 6.5 6.5 6.5 6.5 6.5 7.0 7.3 7.1 7.2 7.3 7.3 7.4
3.2 3.7 6.6 6.4 6.7 6.5 6.5 6.5 6.5 6.7 6.9 7.1 6.7 6.5 6.5 6.6 7.2 7.5 7.5 7.3 7.0 6.5 6.5 6.5 6.5 6.5 6.5 6.5 6.5 6.5 6.5 6.5 6.5 6.5 6.5 6.5 6.5 6.5 6.5 6.7 6.9 7.0 7.2 7.0 6.5
Wind_Speed
18 18 17 18 19 19 19 19 20 20 20 20 20 21 20 20 17 4 4 2 8 24 14 11 7 8 2 1 2 1 1 3 2 4 7 7 5 5 7 10 3 3 11 14 18
18 18 19 19 19 18 19 19 20 20 20 20 20 20 20 19 4 5 3 17 30 24 14 14 11 10 1 1 2 1 2 2 2 8 9 4 4 9 6 5 6 13 16 19 17
19 20 20 20 20 20 20 19 19 20 20 20 19 20 19 15 4 1 5 15 27 19 9 5 10 5 3 1 2 2 2 5 4 10 12 10 5 2 11 4 6 20 20 19 17
21 22 22 22 22 21 21 21 20 19 19 19 19 21 24 2 4 2 4 23 19 7 11 8 6 4 1 2 4 2 5 1 7 7 6 5 9 7 4 3 8 18 19 17 17
21 21 22 22 22 23 22 22 21 19 17 16 16 16 5 2 4 3 16 19 16 9 11 7 5 3 2 2 4 5 2 3 7 8 8 6 6 5 6 6 16 17 17 17 15
21 21 22 22 23 23 23 23 22 19 15 12 12 12 1 5 2 6 13 16 11 13 10 8 5 4 7 3 1 4 7 8 7 7 7 7 4 2 3 9 17 19 18 16 15
22 22 22 23 24 24 24 24 22 19 13 9 6 2 1 8 5 6 8 8 6 10 9 9 6 4 2 1 6 10 8 6 6 5 3 6 4 5 9 12 17 18 16 16 14
23 23 24 24 25 25 25 25 20 13 8 5 2 1 6 2 1 4 5 4 6 10 6 4 2 3 4 9 4 3 3 3 5 5 3 3 1 8 13 15 15 17 15 15 15
23 23 24 25 26 26 26 20 7 8 8 10 3 0 6 4 3 4 9 6 8 6 6 5 1 3 4 5 3 2 3 4 3 8 4 9 1 5 14 13 13 14 16 15 15
24 24 25 25 26 24 26 2 5 4 4 2 2 3 4 1 3 1 5 8 4 9 3 5 3 5 4 8 6 5 4 3 3 7 9 8 9 3 12 15 14 15 15 16 16
23 23 24 26 26 24 8 1 2 1 0 5 3 4 6 7 4 3 4 9 7 8 11 8 8 12 17 14 6 6 6 2 1 3 8 11 10 11 13 15 16 16 16 18 17
22 24 23 24 24 23 3 5 4 2 8 6 11 11 9 5 5 3 8 10 12 13 10 7 15 16 13 10 9 7 5 3 2 4 6 4 11 10 15 18 17 17 18 17 18
22 22 22 23 26 3 3 7 4 5 3 5 3 4 3 8 7 7 11 5 13 17 19 16 14 11 12 11 10 8 9 5 1 5 5 4 6 9 11 15 15 17 17 18 19
22 20 22 28 0 3 3 3 8 5 3 4 2 1 2 2 5 9 10 7 5 20 14 12 9 16 14 16 12 14 9 5 6 4 3 3 3 6 13 16 19 20 19 20 20
22 19 16 9 1 0 4 10 1 3 4 13 2 2 0 5 5 4 3 5 14 9 11 12 14 14 18 20 14 11 9 7 5 3 3 4 4 1 9 16 21 24 22 22 23
23 18 9 2 0 3 11 7 2 1 3 6 6 7 8 3 3 3 6 1 3 7 5 9 2 13 14 9 15 9 7 6 4 2 9 4 7 5 7 15 20 22 23 23 22
24 19 3 1 2 9 8 1 1 1 6 8 8 11 6 4 1 1 8 11 10 14 14 9 8 3 4 15 4 10 12 8 7 6 10 2 5 12 7 9 15 24 26 25 23
24 2 2 2 7 8 1 1 5 6 4 7 7 11 5 9 2 3 4 10 2 6 8 14 13 12 7 10 13 16 16 9 12 10 11 2 7 3 3 7 8 15 22 23 24
8 1 1 5 1 1 2 5 4 5 8 8 11 5 6 6 6 0 3 4 2 4 10 10 17 2 8 6 12 9 11 11 6 1 6 4 5 11 8 4 8 12 14 21 23
1 1 4 6 4 1 4 4 1 6 7 2 5 6 6 10 10 6 2 8 8 3 5 6 7 7 8 6 5 10 12 10 7 15 15 9 6 8 7 4 3 8 16 19 23
1 2 2 6 2 5 3 2 1 6 9 7 4 4 5 6 5 6 6 3 10 6 3 6 4 3 6 15 18 8 9 7 10 8 14 11 9 5 9 7 10 9 12 17 20
2 1 5 2 3 2 2 3 6 7 9 5 2 5 4 6 5 5 5 4 13 6 1 1 7 9 11 2 6 18 19 18 11 12 8 11 16 3 5 6 5 4 5 11 14
2 2 2 2 2 2 2 2 4 8 7 7 6 5 5 4 5 4 5 3 12 8 6 2 4 9 8 5 4 12 13 17 8 9 19 15 11 3 2 4 5 1 1 7 13
1 0 3 4 2 2 2 3 3 4 3 3 5 1 6 3 1 6 8 3 12 8 9 5 2 9 13 15 9 6 16 15 18 12 13 14 18 10 6 5 5 4 6 4 7
4 2 2 3 5 5 1 2 4 6 3 8 2 7 5 4 6 3 4 9 5 10 8 4 3 4 6 5 7 9 12 15 19 21 19 18 19 15 10 1 5 4 6 7 7
2 1 2 2 1 1 3 2 3 5 3 4 6 7 5 4 7 11 8 4 4 8 8 8 1 2 4 4 11 7 5 11 13 7 12 8 17 3 5 8 7 5 7 7 6
1 1 2 2 1 1 1 1 2 2 1 3 5 5 7 6 11 14 13 16 16 12 6 6 5 4 4 7 10 7 4 5 7 5 5 11 2 2 8 8 7 8 8 8 8
Wind_Direction
5 0 357 354 350 347 342 338 336 334 332 330 332 330 329 330 319 169 241 174 171 161 163 157 158 149 165 265 157 79 98 89 92 141 101 129 129 72 110 122 84 107 152 136 145
1 359 353 348 346 340 337 335 333 331 329 328 329 329 327 334 294 253 313 146 148 162 159 173 158 153 119 244 221 209 52 100 163 128 126 121 124 123 141 114 83 104 114 135 151
354 350 346 343 339 336 333 331 329 328 326 326 327 327 325 327 280 48 139 154 160 169 160 160 143 137 174 198 214 171 239 133 138 128 122 125 103 132 150 80 155 145 143 151 157
346 343 341 338 334 330 328 327 324 323 322 323 326 327 322 269 214 2 161 163 161 174 151 144 152 149 235 221 183 233 249 185 143 140 125 117 129 122 128 140 149 146 150 156 162
340 339 336 333 329 327 326 322 318 318 317 317 322 328 337 229 258 4 137 153 162 174 178 170 188 195 271 301 167 217 120 93 138 137 107 126 116 124 114 132 142 145 158 165 173
339 337 334 330 326 325 324 319 315 310 306 306 315 321 321 227 22 131 150 159 178 180 183 190 206 239 299 8 230 158 133 110 106 136 143 145 148 57 182 152 149 158 169 172 185
339 337 333 329 327 327 324 319 311 301 292 288 300 320 165 241 103 71 142 188 204 206 191 219 243 295 297 74 123 125 117 108 129 158 165 158 161 209 153 160 160 168 175 179 191
338 335 332 328 329 329 326 323 316 298 259 227 217 187 251 132 31 246 189 210 219 207 249 277 199 273 263 120 135 106 124 192 157 183 154 212 257 157 164 162 170 175 182 187 192
333 332 330 329 330 330 328 329 358 64 118 142 134 330 259 312 236 222 195 215 183 207 245 301 223 204 192 164 187 179 168 214 175 206 166 212 251 141 167 179 178 186 188 194 196
330 331 330 329 330 332 327 283 104 84 106 190 117 270 248 87 302 219 180 194 158 159 206 201 194 192 177 186 205 180 189 186 233 195 208 209 232 165 185 189 192 192 195 197 202
329 329 330 329 330 331 335 207 327 157 232 247 256 269 289 313 255 200 163 161 176 173 180 185 194 193 193 206 225 160 152 206 167 182 205 224 242 232 195 203 196 197 197 199 200
330 328 332 330 328 325 268 79 93 327 302 265 260 264 271 311 303 262 164 174 182 187 163 168 210 204 194 176 201 192 180 190 127 174 222 236 252 229 204 206 206 195 201 206 203
333 333 333 330 324 4 12 122 12 173 281 302 245 251 284 196 224 248 183 166 187 192 189 196 199 176 174 183 190 209 212 175 329 168 233 279 254 188 209 210 206 216 208 211 209
334 337 334 328 174 339 113 10 322 196 323 299 350 46 140 170 246 221 202 186 186 202 187 212 188 180 193 197 196 220 185 175 149 200 323 221 304 216 195 201 210 214 211 208 212
336 335 332 341 324 282 350 330 113 222 310 341 336 41 205 225 328 173 196 162 206 171 186 193 190 183 201 202 193 221 171 197 157 186 275 196 260 189 191 207 210 212 212 213 207
334 329 320 112 236 282 320 320 188 247 283 337 331 339 340 219 265 321 195 123 110 157 199 200 182 207 199 187 191 161 122 87 88 187 259 242 237 250 194 219 213 209 210 215 211
334 334 200 121 20 331 318 327 193 350 342 349 334 330 325 315 311 280 188 183 187 185 194 183 188 177 162 194 178 190 190 218 227 219 239 69 229 259 240 229 214 202 205 206 210
332 42 191 242 297 327 314 63 55 342 337 330 326 320 347 355 14 338 165 190 84 195 185 200 208 191 162 215 197 205 206 215 216 221 240 128 242 237 275 255 221 213 210 206 205
334 64 52 351 3 253 79 58 29 343 324 317 315 340 355 356 332 333 68 203 231 202 210 197 222 208 207 179 184 186 209 216 228 305 238 220 254 270 272 257 233 225 203 202 198
28 71 25 332 328 354 67 99 122 357 324 276 356 16 343 344 360 4 69 25 354 8 309 186 205 208 185 183 190 219 176 190 207 213 223 220 254 241 255 337 276 234 216 203 200
7 82 18 335 297 40 58 58 333 6 9 2 14 339 341 340 322 356 10 56 354 330 284 157 231 153 167 202 200 178 195 213 224 233 221 230 240 208 257 311 296 270 223 204 195
62 72 4 341 35 61 46 7 1 357 8 11 26 352 334 331 322 335 356 31 3 340 318 168 210 215 200 107 283 215 210 205 210 193 229 240 241 92 303 301 303 298 210 195 201
57 344 359 307 58 63 88 65 43 9 12 8 7 8 354 326 320 355 338 21 7 21 350 29 214 198 216 190 160 213 201 203 204 215 217 222 228 9 2 18 40 15 116 179 188
63 138 29 52 47 46 47 33 10 22 34 348 3 325 343 317 315 311 327 320 339 358 360 221 209 235 216 228 192 188 203 214 220 222 213 223 241 230 275 2 35 40 43 68 183
18 63 19 30 59 76 84 31 2 5 25 9 29 18 354 305 316 314 336 322 326 6 7 23 255 215 256 224 188 207 199 193 212 226 229 233 240 250 285 200 84 64 69 76 83
50 2 85 75 340 76 22 63 351 354 317 351 338 334 321 293 308 302 325 319 307 333 354 354 337 301 233 196 197 172 191 204 218 208 221 237 249 6 84 102 85 86 82 73 62
75 110 287 20 68 213 91 23 38 322 260 275 318 305 300 301 304 286 273 271 271 291 311 324 332 343 181 175 153 167 156 200 162 150 213 213 268 112 97 76 79 81 81 81 64